GEFSSE_con_cape1000_216.txt.gz
Probability
10 32 61 55 65 68 71 68 74 71 68 65 61 65 77 77 71 68 65 61 58 65 68 68 65 68 68 74 74 71 74 71 61 61 71 74 77 77 77 71 71 68 77
16 42 52 52 58 58 58 61 61 68 68 65 61 61 61 58 58 68 68 61 58 58 52 61 58 58 61 58 55 65 58 61 65 61 71 68 74 77 74 71 71 65 68
23 42 48 48 52 55 52 48 48 52 61 55 55 58 58 58 58 55 55 48 42 45 48 39 48 48 52 52 48 45 52 55 55 58 48 26 48 68 68 68 71 61 68
23 29 39 45 45 52 48 48 52 52 52 52 48 48 52 48 45 45 42 42 39 39 39 39 45 42 39 42 45 45 45 55 58 52 19 19 32 48 55 65 58 52 58
23 26 32 45 52 45 48 42 45 48 45 45 45 45 48 42 39 39 35 32 32 32 29 32 35 26 32 32 35 52 48 48 52 13 13 13 19 48 48 65 55 52 52
19 26 32 45 39 35 42 42 45 48 48 45 45 45 42 39 39 39 32 29 29 29 23 19 23 16 23 29 32 42 48 42 16 0 10 16 19 52 52 58 52 52 48
16 23 26 32 29 32 45 35 35 42 42 39 39 39 32 32 35 23 26 26 35 26 16 19 23 19 19 29 23 32 39 29 0 3 6 16 26 58 52 52 58 55 48
13 19 16 23 29 29 35 32 29 29 32 29 23 26 26 29 23 19 16 23 26 23 23 19 19 16 16 16 19 29 26 26 3 3 10 16 35 48 52 52 48 45 48
13 13 16 16 19 29 29 29 23 23 29 26 23 23 19 23 19 13 13 13 13 13 10 16 16 13 10 16 19 23 23 13 0 0 13 16 32 35 32 42 35 35 42
3 6 13 6 6 10 16 23 23 23 23 23 23 23 19 16 13 10 10 10 10 6 10 10 16 13 10 10 13 13 13 3 3 3 3 16 29 26 16 35 32 29 32
3 3 6 3 3 3 6 10 23 23 23 16 16 16 6 0 0 3 13 10 10 3 3 10 13 10 10 6 3 10 6 0 0 3 6 19 26 16 19 26 29 26 32
0 0 0 0 0 0 3 3 3 3 3 0 0 0 0 0 0 0 10 13 13 6 3 6 6 3 0 0 0 3 0 0 0 3 6 23 19 26 29 32 32 26 32
0 0 0 0 0 0 0 3 0 0 0 0 0 0 0 0 0 0 0 3 3 3 0 3 0 0 0 0 0 0 0 0 0 3 6 16 19 23 29 29 26 29 29
0 0 0 0 0 0 0 0 0 0 0 0 0 0 0 0 0 0 0 0 0 0 0 0 0 0 0 0 0 0 0 0 0 0 10 19 23 23 23 26 23 23 23
0 0 0 0 0 0 0 0 0 0 0 0 0 0 0 0 0 0 0 0 0 0 0 0 0 0 0 0 0 0 0 0 0 0 0 10 23 19 19 26 19 29 26
0 0 0 0 0 0 0 0 0 0 0 0 0 0 0 0 0 0 0 0 0 0 0 0 0 0 0 0 0 0 0 0 0 0 0 0 13 26 29 23 13 16 29
0 0 0 0 0 0 0 0 0 0 0 0 0 0 0 0 0 0 0 0 0 0 0 0 0 0 0 0 0 0 0 0 0 0 0 0 0 10 16 19 19 19 19
0 0 0 0 0 0 0 0 0 0 0 0 0 0 0 0 0 0 0 0 0 0 0 0 0 0 0 0 0 0 0 0 0 0 0 0 0 0 3 10 16 16 23
0 0 0 0 0 0 0 0 0 0 0 0 0 0 0 0 0 0 0 0 0 0 0 0 0 0 0 0 0 0 0 0 0 0 0 0 0 0 0 0 10 13 16
0 0 0 0 0 0 0 0 0 0 0 0 0 0 0 0 0 0 0 0 0 0 0 0 0 0 0 0 0 0 0 0 0 0 0 0 0 0 0 0 0 0 10
0 0 0 0 0 0 0 0 0 0 0 0 0 0 0 0 0 0 0 0 0 0 0 0 0 0 0 0 0 0 0 0 0 0 0 0 0 0 0 0 0 0 0
0 0 0 0 0 0 0 0 0 0 0 0 0 0 0 0 0 0 0 0 0 0 0 0 0 0 0 0 0 0 0 0 0 0 0 0 0 0 0 0 0 0 0
0 0 0 0 0 0 0 0 0 0 0 0 0 0 0 0 0 0 0 0 0 0 0 0 0 0 0 0 0 0 0 0 0 0 0 0 0 0 0 0 0 0 0
0 0 0 0 0 0 0 0 0 0 0 0 0 0 0 0 0 0 0 0 0 0 0 0 0 0 0 0 0 0 0 0 0 0 0 0 0 0 0 0 0 0 0
0 0 0 0 0 0 0 0 0 0 0 0 0 0 0 0 0 0 0 0 0 0 0 0 0 0 0 0 0 0 0 0 0 0 0 0 0 0 0 0 0 0 0
3 0 0 0 0 0 0 0 0 0 0 0 0 0 0 0 0 0 0 0 0 0 0 0 0 0 0 0 0 0 0 0 0 0 0 0 0 0 0 0 0 0 0

GEFSSE_con_cape1000_222.txt.gz
Probability
3 10 42 52 55 61 61 65 74 68 68 77 74 71 71 65 65 58 61 61 65 65 65 65 74 71 68 68 71 65 61 71 61 65 71 81 74 77 71 65 68 77 61
3 23 45 48 52 52 55 61 68 68 65 68 71 61 58 58 58 58 55 52 52 55 58 55 58 58 58 68 65 65 58 68 61 58 58 52 58 61 71 74 68 61 77
13 32 39 52 55 52 42 52 45 52 52 52 48 55 48 55 52 48 48 45 42 35 42 55 48 45 42 58 61 58 65 65 55 52 42 16 42 55 68 68 68 61 58
23 26 26 52 52 48 42 35 45 42 45 48 48 45 45 42 42 42 42 32 29 32 39 45 45 42 35 48 48 55 65 58 55 32 16 16 23 42 52 48 55 52 48
19 19 29 39 39 45 39 39 42 45 48 45 45 48 45 42 32 32 29 29 29 26 35 39 45 29 29 45 45 52 52 52 32 16 3 10 13 45 48 58 55 48 52
19 19 29 35 26 35 35 35 42 42 42 45 45 42 39 39 32 32 32 29 26 23 19 29 26 23 29 35 45 32 29 19 10 3 6 10 19 42 52 48 45 42 42
16 19 23 26 26 29 39 35 42 32 35 45 42 42 39 35 26 23 26 19 16 16 19 26 23 26 26 29 35 26 23 16 0 3 10 13 32 52 45 39 48 48 42
13 16 13 23 26 29 32 23 26 26 26 29 32 26 29 26 26 26 26 23 16 13 13 19 26 23 19 23 32 26 16 10 6 6 10 13 39 48 39 35 42 42 39
10 13 13 13 13 19 19 16 16 19 19 19 26 26 26 23 23 26 23 23 16 16 16 13 16 16 19 19 16 19 19 13 0 6 13 13 32 35 32 32 35 35 35
6 13 6 6 6 10 10 16 16 19 19 19 23 19 16 19 19 16 10 16 16 13 13 13 13 13 16 16 13 16 16 0 0 6 6 10 23 26 32 29 29 32 29
0 0 3 3 3 3 6 10 13 16 16 13 19 16 6 3 6 6 13 13 16 16 13 10 6 3 6 6 10 6 0 0 0 3 6 16 23 26 32 32 29 39 35
0 0 3 3 3 3 6 6 3 6 6 6 0 0 0 0 0 3 6 10 10 6 3 0 0 0 0 0 3 0 0 0 0 0 6 26 26 23 23 29 32 35 32
0 0 3 3 3 0 0 0 0 0 0 0 0 0 0 0 0 0 0 3 0 0 0 0 0 0 0 0 0 0 0 0 0 0 6 19 19 23 26 23 32 39 39
0 0 3 3 0 0 0 0 0 0 0 0 0 0 0 0 0 0 0 0 0 0 0 0 0 0 0 0 0 0 0 0 0 0 6 10 16 19 19 26 29 26 23
0 0 0 0 0 0 0 0 0 0 0 0 0 0 0 0 0 0 0 0 0 0 0 0 0 0 0 0 0 0 0 0 0 0 0 6 13 13 13 19 23 26 19
0 0 0 0 0 0 0 0 0 0 0 0 0 0 0 0 0 0 0 0 0 0 0 0 0 0 0 0 0 0 0 0 0 0 0 0 10 10 6 10 16 26 23
0 0 0 0 0 0 0 0 0 0 0 0 0 0 0 0 0 0 0 0 0 0 0 0 0 0 0 0 0 0 0 0 0 0 0 0 0 3 3 0 3 10 23
0 0 0 0 0 0 0 0 0 0 0 0 0 0 0 0 0 0 0 0 0 0 0 0 0 0 0 0 0 0 0 0 0 0 0 0 0 0 0 3 3 3 19
0 0 0 0 0 0 0 0 0 0 0 0 0 0 0 0 0 0 0 0 0 0 0 0 0 0 0 0 0 0 0 0 0 0 0 0 0 0 0 0 0 0 6
0 0 0 0 0 0 0 0 0 0 0 0 0 0 0 0 0 0 0 0 0 0 0 0 0 0 0 0 0 0 0 0 0 0 0 0 0 0 0 0 0 0 0
0 0 0 0 0 0 0 0 0 0 0 0 0 0 0 0 0 0 0 0 0 0 0 0 0 0 0 0 0 0 0 0 0 0 0 0 0 0 0 0 0 0 0
0 0 0 0 0 0 0 0 0 0 0 0 0 0 0 0 0 0 0 0 0 0 0 0 0 0 0 0 0 0 0 0 0 0 0 0 0 0 0 0 0 0 0
0 0 0 0 0 0 0 0 0 0 0 0 0 0 0 0 0 0 0 0 0 0 0 0 0 0 0 0 0 0 0 0 0 0 0 0 0 0 0 0 0 0 0
0 0 0 0 0 0 0 0 0 0 0 0 0 0 0 0 0 0 0 0 0 0 0 0 0 0 0 0 0 0 0 0 0 0 0 0 0 0 0 0 0 0 0
0 0 0 0 0 0 0 0 0 0 0 0 0 0 0 0 0 0 0 0 0 0 0 0 0 0 0 0 0 0 0 0 0 0 0 0 0 0 0 0 0 0 0
0 0 0 0 0 0 0 0 0 0 0 0 0 0 0 0 0 0 0 0 0 0 0 0 0 0 0 0 0 0 0 0 0 0 0 0 0 0 0 0 0 0 0

GEFSSE_con_cape1000_228.txt.gz
Probability
16 19 42 42 52 58 55 55 61 68 61 61 61 71 68 65 61 61 61 58 58 68 61 65 71 74 71 74 71 71 71 61 65 68 71 68 65 71 68 68 61 68 65
16 16 42 45 52 52 52 52 52 55 55 52 55 55 58 45 55 58 61 61 61 55 55 58 58 65 65 65 65 71 68 61 58 55 58 55 52 52 58 55 61 71 77
16 16 39 42 42 52 45 39 42 45 48 48 52 48 48 42 45 39 42 45 55 52 45 42 42 55 65 58 55 58 58 55 55 48 48 45 48 45 45 45 52 48 58
13 16 23 42 42 42 39 42 42 35 42 42 45 42 45 35 35 39 29 26 35 42 42 45 42 52 52 42 45 39 55 48 35 35 39 35 39 45 35 32 39 42 48
13 19 29 35 32 32 39 45 42 42 35 39 42 35 42 35 32 32 29 26 29 32 39 45 39 35 42 39 32 29 29 26 23 29 42 42 55 45 42 39 35 35 39
10 16 29 32 32 32 39 48 42 39 32 32 35 39 32 29 23 26 23 26 23 23 29 39 35 32 29 26 23 26 19 10 10 26 35 35 45 42 35 45 42 42 39
10 13 19 29 29 26 35 35 39 32 32 32 32 32 23 23 19 19 19 23 19 23 32 26 26 19 16 19 23 13 10 10 10 26 32 45 48 39 32 35 35 39 35
10 10 19 19 23 19 16 16 19 26 26 29 29 23 23 23 23 19 19 16 16 16 23 23 23 16 16 16 19 13 10 10 6 6 19 32 32 39 29 29 35 35 39
10 13 16 16 13 16 19 19 16 19 16 23 19 19 19 19 19 13 16 10 6 10 16 13 16 16 16 13 16 16 13 13 13 10 10 23 29 29 29 29 29 35 32
13 16 13 10 6 13 13 13 13 13 16 19 16 19 19 19 13 6 6 10 6 6 10 13 13 6 10 10 13 13 16 6 6 6 10 16 29 26 29 26 23 26 23
10 13 6 6 6 10 16 10 13 10 10 10 10 13 13 13 6 0 3 10 10 6 6 10 10 6 3 13 10 10 6 3 3 6 13 23 19 32 26 29 26 26 26
6 6 3 3 3 3 3 13 16 13 13 13 10 6 3 3 0 0 0 6 6 3 3 3 3 3 0 3 6 3 3 6 6 3 10 26 23 23 29 23 29 26 23
6 3 3 3 3 3 6 16 19 16 16 10 6 0 3 3 3 0 0 0 3 0 3 0 0 0 0 3 6 6 6 6 13 10 10 13 16 19 23 19 32 26 32
6 6 6 3 3 3 3 10 10 10 16 10 3 0 0 3 3 3 3 0 6 6 6 3 3 0 3 3 6 6 0 6 3 3 6 6 10 19 19 10 13 10 19
10 10 6 3 3 3 3 10 6 6 6 3 3 0 0 0 0 0 0 10 0 6 3 6 0 3 3 6 0 0 0 0 0 0 3 0 3 6 13 13 13 13 16
10 10 6 6 6 3 3 3 3 3 6 3 3 0 0 0 0 0 0 3 6 3 6 3 0 3 3 3 0 0 0 0 0 0 0 0 0 0 3 10 16 10 19
10 10 6 10 6 3 3 3 3 3 3 3 3 0 0 0 0 0 0 0 3 0 0 0 0 0 0 0 0 0 0 0 0 0 0 0 0 0 0 3 6 3 10
10 10 10 6 6 3 3 3 3 3 3 3 0 0 0 0 0 3 0 0 0 0 0 3 0 6 3 0 0 0 0 3 0 0 0 0 0 0 0 0 3 3 6
16 10 10 6 6 10 3 3 3 3 3 3 0 0 0 0 3 3 3 0 0 0 0 0 0 3 0 0 0 0 0 0 0 0 0 0 0 0 0 0 0 0 3
16 13 10 6 6 6 3 3 3 3 3 3 3 3 0 0 3 3 3 0 0 0 3 3 3 0 0 0 0 0 0 0 0 0 0 0 0 0 0 0 0 0 0
19 16 13 10 6 6 3 3 3 3 3 3 3 0 0 0 0 3 3 3 3 3 0 0 0 0 0 0 0 0 0 0 0 0 0 0 0 0 0 0 0 0 0
19 19 19 19 13 6 3 3 3 3 3 3 3 3 0 3 3 0 6 3 3 6 6 3 0 0 0 0 0 0 0 0 0 0 0 0 0 0 0 0 0 0 0
16 19 19 19 16 6 0 0 0 0 3 0 0 3 0 0 3 3 3 6 6 3 6 0 0 0 0 0 3 3 0 0 0 0 0 0 3 3 3 3 0 0 0
19 19 16 13 13 10 0 0 0 3 0 0 0 0 0 0 3 3 0 3 6 3 3 0 0 0 0 0 0 0 0 0 0 0 0 0 0 0 0 0 0 0 3
13 19 13 13 13 10 6 0 0 0 0 0 0 0 0 0 3 3 0 3 3 0 0 0 0 0 0 0 3 0 0 0 0 0 0 0 0 0 0 0 0 0 3
10 19 19 13 13 6 3 3 0 0 0 0 0 0 0 0 3 3 0 0 0 3 0 0 3 3 0 0 6 3 0 0 0 0 0 0 0 0 0 0 0 0 0

GEFSSE_con_cape1000_234.txt.gz
Probability
32 35 55 61 68 61 52 55 58 55 58 61 71 55 55 58 55 58 61 65 65 71 65 61 61 61 68 71 74 68 61 55 55 58 55 65 71 68 71 77 81 77 77
35 26 58 61 61 48 42 39 45 48 48 45 45 39 52 48 52 55 48 52 58 52 48 52 58 68 74 74 65 52 52 48 45 58 65 65 58 65 61 71 74 74 74
32 29 48 55 52 42 42 35 35 39 39 32 32 35 35 39 42 42 42 39 45 48 45 45 45 42 52 65 55 42 32 39 45 58 61 48 48 52 48 52 65 58 55
19 23 29 52 45 45 42 32 35 39 35 32 32 32 29 32 29 35 32 39 32 39 42 35 42 42 39 39 35 35 32 42 48 61 35 39 29 39 45 48 48 42 39
19 16 32 45 35 45 39 35 32 32 29 32 32 35 32 32 32 29 32 32 35 29 23 29 35 32 23 23 23 26 32 39 55 52 23 23 23 39 35 45 39 39 45
16 16 32 32 32 29 32 32 32 39 32 35 35 35 32 32 29 26 19 23 26 26 26 29 23 19 19 16 19 19 26 39 35 19 23 23 29 42 39 42 39 39 39
13 19 16 26 35 35 29 32 29 29 29 23 23 23 23 19 16 16 16 16 16 26 23 19 23 19 16 13 16 13 26 35 19 13 19 26 29 39 35 39 39 35 39
13 13 16 29 39 26 26 29 19 23 26 13 16 23 23 23 19 13 13 10 13 16 16 19 19 19 16 13 16 16 23 29 10 10 13 13 32 35 32 29 32 29 35
13 13 16 16 19 23 26 23 16 23 19 13 16 13 16 16 13 13 13 10 16 16 16 16 19 13 13 13 13 19 19 19 6 6 10 13 29 39 35 32 29 29 26
6 13 16 10 13 13 13 23 19 19 19 16 13 13 19 13 16 13 13 13 13 10 10 10 13 10 6 10 13 16 16 10 0 0 6 19 39 29 39 42 32 32 26
10 10 13 6 6 10 10 10 19 19 19 13 6 10 13 6 0 6 10 6 6 6 6 6 6 10 6 10 16 19 6 0 0 0 3 23 26 26 29 35 35 26 32
10 6 3 6 3 3 3 10 10 10 6 6 6 3 3 3 0 0 3 6 6 3 3 10 10 3 3 0 0 0 0 0 0 0 6 19 19 23 26 29 35 26 26
3 6 10 3 3 0 3 10 13 13 6 6 6 3 0 0 0 0 0 0 0 0 0 0 0 0 0 0 0 0 0 0 3 3 3 19 19 19 13 10 13 13 16
3 3 0 3 0 0 3 3 6 10 10 0 3 0 0 0 3 0 3 3 3 0 3 3 0 0 0 0 0 0 0 0 3 0 0 13 16 10 16 6 6 10 6
6 3 0 0 0 3 0 3 3 3 3 3 6 0 0 0 0 0 0 3 3 3 3 0 0 0 0 0 0 0 0 0 0 0 0 3 10 13 13 13 13 10 6
6 6 0 0 0 0 3 3 3 3 6 3 3 0 0 3 0 3 3 6 3 3 3 0 3 3 3 3 0 0 0 0 0 0 0 0 3 3 6 6 10 10 10
6 6 6 3 0 0 3 3 3 6 3 3 3 0 0 0 0 0 3 0 0 0 0 3 0 3 0 0 0 0 0 0 0 0 0 0 0 0 6 10 10 10 6
6 6 6 6 0 0 3 6 3 3 3 3 3 0 0 3 3 3 3 0 0 3 0 3 0 0 0 0 0 0 0 0 0 0 0 0 0 0 0 10 6 10 10
6 10 10 10 3 3 3 6 6 6 3 3 3 0 3 3 3 3 6 3 3 3 0 3 3 0 0 0 0 0 0 0 0 0 0 0 0 0 0 0 0 3 3
3 10 10 10 6 3 6 3 6 0 3 3 3 0 3 3 3 3 3 3 3 6 3 0 0 0 0 0 0 0 0 0 0 0 0 0 0 0 0 0 0 0 3
3 6 13 10 10 3 3 3 0 0 0 0 0 0 0 3 6 6 6 6 6 3 0 0 0 0 0 0 0 0 0 0 0 0 0 0 0 0 0 0 0 0 0
3 0 6 10 10 3 6 3 0 0 0 0 0 0 0 0 0 3 3 6 6 3 0 0 0 0 0 0 0 0 0 0 0 0 0 0 0 0 0 0 0 0 0
3 3 3 6 6 10 3 0 0 0 0 0 0 0 0 0 0 6 6 6 6 3 3 0 0 0 0 0 0 0 0 0 0 0 0 0 0 0 0 0 0 0 0
6 6 6 6 6 6 3 0 0 0 0 0 3 3 0 0 0 3 6 6 6 0 0 0 0 0 0 0 0 0 0 0 0 0 0 0 0 0 0 0 0 0 0
6 6 6 6 6 3 3 3 0 0 0 0 3 0 0 3 0 0 0 3 3 0 0 0 0 0 0 0 0 0 0 0 0 0 0 0 0 0 0 0 0 0 0
6 16 19 10 6 6 0 6 3 0 0 0 3 0 0 3 0 0 0 0 3 3 0 0 0 0 0 0 0 0 0 0 0 0 0 0 0 0 0 0 0 0 0

GEFSSE_con_cape1000_240.txt.gz
Probability
10 32 65 74 58 65 65 65 65 65 61 58 61 61 58 61 58 55 65 65 61 68 65 71 71 71 61 58 48 52 55 55 61 65 68 71 71 68 58 68 68 68 71
16 42 65 65 52 55 58 61 61 68 58 52 52 61 65 58 58 61 52 55 61 52 58 65 61 58 55 45 45 42 45 61 58 61 55 55 58 61 65 71 68 58 65
23 42 58 65 48 39 42 48 55 55 55 55 52 58 52 55 48 52 48 45 35 32 42 45 45 42 45 45 45 45 48 55 61 61 45 23 42 48 48 55 58 68 55
23 32 42 52 45 45 39 45 45 52 45 48 45 52 48 52 48 52 45 35 35 35 32 35 26 29 35 32 35 39 48 48 58 35 6 19 23 42 45 45 48 55 55
19 29 48 52 52 42 39 42 42 39 42 42 45 39 35 39 45 45 39 39 35 26 29 29 19 23 23 23 29 42 39 35 39 13 3 3 19 39 39 39 39 45 52
13 19 42 52 45 42 39 42 42 39 42 42 39 32 32 26 35 32 32 26 23 16 23 26 19 16 16 19 26 35 35 29 6 3 3 10 16 39 39 42 45 45 52
13 19 23 45 48 42 42 42 45 45 32 39 32 32 26 26 23 26 23 26 19 19 19 23 19 19 19 23 29 32 32 16 3 3 6 13 19 29 32 35 42 39 42
10 16 19 48 45 39 39 39 42 42 32 29 35 29 23 23 23 23 23 13 19 16 19 19 19 16 16 16 26 19 16 10 6 6 6 10 29 39 35 29 32 32 35
10 13 16 16 23 29 35 32 35 32 32 32 26 19 19 23 16 23 19 16 16 16 13 10 16 19 19 16 23 19 13 10 0 3 3 10 26 29 32 29 29 32 35
10 13 13 13 10 13 16 29 32 32 16 19 19 16 23 23 19 16 13 10 13 3 6 10 13 13 16 16 23 13 10 3 0 0 0 16 29 26 26 23 29 35 35
3 3 10 6 10 10 10 16 16 23 16 16 16 16 10 3 3 6 6 16 10 3 3 6 10 13 13 10 10 3 0 0 0 0 0 13 26 23 26 29 32 32 32
3 0 3 6 6 6 10 13 6 10 6 3 3 6 0 0 0 0 0 16 13 10 6 6 6 3 0 0 0 0 0 0 0 0 0 19 19 13 16 23 23 23 23
0 3 0 0 0 3 0 3 3 0 0 0 0 0 0 0 0 0 0 0 0 3 0 0 0 0 0 0 0 0 0 0 0 0 0 13 10 6 19 13 13 16 16
0 0 0 0 0 0 0 0 0 0 0 0 0 0 0 0 0 0 0 0 0 0 0 0 0 0 0 0 0 0 0 0 0 0 0 10 10 13 10 16 13 13 13
3 0 0 0 0 0 0 0 3 0 0 0 0 0 0 0 0 0 0 0 0 0 0 0 0 0 0 0 0 0 0 0 0 0 0 10 10 6 10 6 6 13 13
0 0 0 0 0 0 0 0 3 0 0 0 0 0 0 0 0 0 0 0 0 0 0 0 0 0 0 0 0 0 0 0 0 0 0 3 3 10 6 6 10 6 6
0 0 0 0 0 0 0 0 0 0 0 0 0 0 0 0 0 0 0 0 0 0 0 0 0 0 0 0 0 0 0 0 0 0 0 0 0 3 6 6 6 16 10
0 0 0 0 0 0 0 0 0 0 0 0 0 0 0 0 0 0 0 0 0 0 0 0 0 0 0 0 0 0 0 0 0 0 0 0 0 0 0 3 6 3 6
0 0 0 0 0 0 0 0 0 0 0 0 0 0 0 0 0 0 0 0 0 0 0 0 0 0 0 0 0 0 0 0 0 0 0 0 0 0 0 0 3 3 6
0 0 0 0 0 0 0 0 0 0 0 0 0 0 0 0 0 0 0 0 0 0 0 0 0 0 0 0 0 0 0 0 0 0 0 0 0 0 0 0 0 0 3
0 0 0 0 0 0 0 0 0 0 0 0 0 0 0 0 0 0 0 0 0 0 0 0 0 0 0 0 0 0 0 0 0 0 0 0 0 0 0 0 0 0 0
0 0 0 0 0 0 0 0 0 0 0 0 0 0 0 0 0 0 0 0 0 0 0 0 0 0 0 0 0 0 0 0 0 0 0 0 0 0 0 0 0 0 0
0 0 0 0 0 0 0 0 0 0 0 0 0 0 0 0 0 0 0 0 0 0 0 0 0 0 0 0 0 0 0 0 0 0 0 0 0 0 0 0 0 0 0
0 0 0 0 0 0 0 0 0 0 0 0 0 0 0 0 0 0 0 0 0 0 0 0 0 0 0 0 0 0 0 0 0 0 0 0 0 0 0 0 0 0 0
0 0 0 0 0 0 0 0 0 0 0 0 0 0 0 0 0 0 0 0 0 0 0 0 0 0 0 0 0 0 0 0 0 0 0 0 0 0 0 0 0 0 0
0 0 0 0 0 0 0 0 0 0 0 0 0 0 0 0 0 0 0 0 0 0 0 0 0 0 0 0 0 0 0 0 0 0 0 0 0 0 0 0 0 0 0

GEFSSE_con_cape1000_246.txt.gz
Probability
3 13 39 42 58 68 61 58 58 48 45 52 52 55 58 55 55 55 52 55 61 65 65 65 58 55 52 55 48 52 58 61 61 68 68 55 55 58 68 58 58 58 58
6 19 35 45 55 61 52 55 48 48 52 48 52 48 55 48 48 55 48 45 45 48 52 45 48 45 45 48 48 48 58 58 65 55 52 42 55 55 65 68 65 58 61
10 26 39 42 42 48 39 45 45 48 45 42 48 48 52 55 52 42 39 29 26 39 42 39 35 35 42 42 52 52 58 58 58 48 29 19 26 45 48 52 55 48 52
19 23 23 39 42 42 39 45 42 42 39 35 42 48 52 52 52 45 35 32 29 35 32 32 32 32 39 39 42 48 58 52 42 23 6 6 16 35 35 39 48 45 48
13 16 26 45 42 39 39 39 35 26 29 32 39 39 45 45 39 35 39 39 32 29 26 32 35 32 35 45 42 32 45 39 23 6 3 6 13 35 39 39 42 48 45
13 16 19 35 35 32 35 32 35 29 26 32 39 35 32 26 32 32 32 32 26 26 23 35 32 29 35 26 29 29 29 29 3 0 0 3 13 35 35 39 45 45 39
13 16 19 35 26 26 29 32 35 32 26 26 29 29 29 32 26 26 26 19 16 19 19 32 29 23 29 32 32 26 23 16 0 6 6 6 16 32 29 26 39 42 42
10 13 16 26 26 35 26 32 29 29 26 29 29 23 16 26 26 23 19 19 19 16 23 29 19 19 23 26 29 29 26 13 3 3 6 6 26 26 26 29 35 26 32
10 10 13 19 23 26 35 35 29 19 35 32 23 19 16 16 16 19 16 23 23 19 19 23 23 19 23 26 23 19 19 6 0 0 3 6 29 23 23 26 26 29 29
6 10 13 13 16 13 19 29 26 23 26 19 16 19 16 16 16 16 10 23 13 10 19 16 19 19 23 19 19 13 10 0 0 0 0 10 26 19 23 23 29 32 29
6 6 6 10 10 6 6 13 13 16 16 10 10 13 13 3 0 0 3 13 3 10 10 13 13 10 6 6 13 3 0 0 0 0 0 10 19 26 26 26 23 19 26
3 6 6 3 3 3 10 13 10 10 6 3 0 0 0 0 0 0 0 3 3 6 10 10 10 6 0 0 0 0 0 0 0 0 0 10 6 10 19 19 19 19 16
3 3 3 3 3 3 0 0 0 0 0 0 0 0 0 0 0 0 0 0 0 3 0 0 0 0 0 0 0 0 0 0 0 0 0 6 6 13 10 10 16 16 19
0 3 3 3 3 0 0 0 0 0 0 0 0 0 0 0 0 0 0 0 0 0 0 0 0 0 0 0 0 0 0 0 0 0 0 6 3 3 3 10 16 16 23
0 0 3 0 0 0 0 0 0 0 0 0 0 0 0 0 0 0 0 0 0 0 0 0 0 0 0 0 0 0 0 0 0 0 0 3 6 3 0 0 3 16 13
0 0 0 0 0 0 0 0 0 0 0 0 0 0 0 0 0 0 0 0 0 0 0 0 0 0 0 0 0 0 0 0 0 0 0 0 0 0 0 0 0 6 13
0 0 0 0 0 0 0 0 0 0 0 0 0 0 0 0 0 0 0 0 0 0 0 0 0 0 0 0 0 0 0 0 0 0 0 0 0 0 3 3 0 3 6
0 0 3 3 0 0 0 0 0 0 0 0 0 0 0 0 0 0 0 0 0 0 0 0 0 0 0 0 0 0 0 0 0 0 0 0 0 0 0 0 3 3 0
0 0 0 0 0 0 0 0 0 0 0 0 0 0 0 0 0 0 0 0 0 0 0 0 0 0 0 0 0 0 0 0 0 0 0 0 0 0 0 0 0 0 3
0 0 0 0 0 0 0 0 0 0 0 0 0 0 0 0 0 0 0 0 0 0 0 0 0 0 0 0 0 0 0 0 0 0 0 0 0 0 0 0 0 0 0
0 0 0 0 0 0 0 0 0 0 0 0 0 0 0 0 0 0 0 0 0 0 0 0 0 0 0 0 0 0 0 0 0 0 0 0 0 0 0 0 0 0 0
0 0 0 0 0 0 0 0 0 0 0 0 0 0 0 0 0 0 0 0 0 0 0 0 0 0 0 0 0 0 0 0 0 0 0 0 0 0 0 0 0 0 0
0 0 0 0 0 0 0 0 0 0 0 0 0 0 0 0 0 0 0 0 0 0 0 0 0 0 0 0 0 0 0 0 0 0 0 0 0 0 0 0 0 0 0
0 0 0 0 0 0 0 0 0 0 0 0 0 0 0 0 0 0 0 0 0 0 0 0 0 0 0 0 0 0 0 0 0 0 0 0 0 0 0 0 0 0 0
0 0 0 0 0 0 0 0 0 0 0 0 0 0 0 0 0 0 0 0 0 0 0 0 0 0 0 0 0 0 0 0 0 0 0 0 0 0 0 0 0 0 0
0 0 0 0 0 0 0 0 0 0 0 0 0 0 0 0 0 0 0 0 0 0 0 0 0 0 0 0 0 0 0 0 0 0 0 0 0 0 0 0 0 0 0

GEFSSE_con_cape1000_252.txt.gz
Probability
13 19 32 42 39 39 45 45 42 45 45 45 45 48 58 52 52 45 45 45 45 55 58 55 52 52 52 48 48 48 55 61 61 58 52 55 55 45 42 55 55 65 61
6 23 29 35 42 42 42 45 42 42 45 39 42 48 45 42 39 42 35 42 45 52 48 48 45 48 45 55 45 52 55 48 52 48 45 45 52 55 52 48 55 68 58
6 19 23 26 35 45 42 48 42 42 42 39 42 48 42 35 39 29 32 42 39 45 42 45 42 39 42 48 42 48 55 55 32 26 26 32 35 35 35 39 39 39 48
10 13 19 29 32 32 35 39 42 42 42 45 48 45 42 42 35 35 35 39 32 42 35 35 39 32 35 35 42 48 42 35 26 26 16 16 23 32 35 32 35 45 45
6 13 19 29 32 29 32 29 32 35 35 45 45 48 45 35 32 32 32 32 39 26 29 35 39 29 32 35 35 29 29 26 19 19 26 39 45 39 35 39 39 42 45
6 16 19 26 26 26 32 32 26 32 35 32 35 39 35 32 32 29 29 32 32 29 26 35 35 32 26 26 26 26 26 13 19 26 32 35 35 35 35 35 35 42 42
10 16 19 23 19 29 35 29 23 29 26 32 35 35 23 29 23 19 26 29 19 26 23 29 32 23 19 26 23 26 19 13 13 26 32 29 32 29 32 32 35 35 45
10 10 16 23 19 23 35 23 23 29 29 39 35 29 32 32 16 19 23 23 23 26 16 19 23 26 23 23 26 26 19 16 10 6 23 26 26 29 26 29 29 32 32
13 13 10 16 13 23 35 29 16 19 32 29 26 29 32 26 16 13 10 19 19 19 13 16 19 19 26 16 19 23 10 13 6 6 6 23 26 26 16 19 26 32 32
10 10 10 16 13 13 26 35 19 16 19 19 26 19 23 16 10 6 10 10 13 16 6 10 16 16 26 23 16 16 6 3 10 10 19 23 23 19 16 19 19 26 26
10 13 10 13 13 13 10 10 16 13 13 16 10 6 3 0 0 3 6 13 6 3 3 13 16 13 10 6 10 6 3 3 10 19 23 16 23 16 16 16 23 26 23
10 13 13 10 13 10 0 16 26 6 13 3 6 3 3 0 0 0 0 13 13 6 10 10 6 6 6 6 0 0 3 0 6 16 13 3 19 13 19 13 23 19 23
10 10 10 10 10 10 13 13 13 16 10 0 0 3 6 6 3 0 13 6 10 6 3 3 3 3 3 0 0 3 3 6 10 10 10 10 6 13 10 10 13 16 13
10 13 10 13 10 13 13 10 13 13 13 0 3 0 3 6 3 3 6 13 6 3 3 0 3 3 0 0 0 0 0 6 0 6 6 0 0 3 3 6 6 16 13
6 3 10 6 10 10 13 13 10 13 6 0 6 3 0 3 3 0 3 6 3 6 3 6 0 0 0 0 0 0 0 0 0 0 3 3 3 0 0 3 3 6 13
6 3 10 10 6 10 13 16 13 6 10 0 0 0 0 3 0 0 3 6 3 6 6 3 3 3 0 0 0 0 0 0 0 0 0 0 0 0 3 0 3 0 6
6 3 3 13 16 10 10 13 13 10 6 3 0 3 0 3 3 0 0 0 3 3 3 3 3 6 3 3 3 0 0 0 0 0 0 0 0 0 0 0 3 3 3
3 3 3 3 10 13 10 13 10 10 3 3 3 0 0 3 0 0 3 3 3 3 3 6 6 6 6 3 0 0 0 0 0 0 0 0 0 0 0 0 0 3 0
0 3 10 6 6 10 10 13 10 10 6 3 3 3 3 6 3 6 3 3 3 6 6 0 0 0 0 3 0 0 0 0 0 0 0 0 3 3 3 0 0 0 3
3 6 3 10 6 6 6 6 6 6 6 6 3 3 3 6 6 6 6 3 3 6 3 0 0 0 0 0 0 0 0 0 0 3 0 0 3 3 0 0 0 0 0
3 6 3 6 10 6 3 6 6 3 3 3 3 3 3 0 6 10 6 10 6 6 3 0 0 0 0 0 0 0 0 0 0 0 0 0 0 0 0 0 3 3 3
3 3 0 6 6 0 3 3 3 0 0 0 0 3 3 0 0 3 6 10 6 6 6 0 0 0 0 0 0 0 0 0 0 0 0 0 0 0 0 0 0 0 3
10 3 3 3 6 10 6 0 0 0 0 0 6 0 0 0 3 10 10 6 3 6 3 3 3 0 0 0 0 0 0 0 0 0 0 0 0 0 0 0 0 0 0
13 10 3 6 3 6 13 6 3 3 3 3 3 0 0 0 6 6 3 3 3 0 0 0 0 3 0 0 0 0 0 0 0 0 0 0 0 0 0 0 0 0 0
13 10 10 3 6 6 10 10 6 3 3 3 6 3 3 0 3 6 6 3 3 0 0 0 0 0 0 0 0 0 0 0 0 0 0 0 0 0 0 0 3 3 3
13 10 10 13 6 10 10 6 6 6 6 6 3 3 3 0 0 6 3 6 6 0 0 0 0 0 0 0 0 0 3 3 0 0 0 0 0 0 0 0 0 0 0

GEFSSE_con_cape1000_258.txt.gz
Probability
32 29 55 52 48 48 39 35 48 48 52 48 42 39 42 39 42 48 42 48 45 55 52 58 58 55 48 52 55 48 42 42 45 52 55 55 52 58 52 58 61 68 68
39 32 58 52 45 32 35 39 29 39 39 45 35 39 45 39 39 42 45 39 48 48 52 55 45 45 42 45 45 52 35 32 39 42 52 52 61 61 55 58 58 65 61
23 26 39 55 39 39 32 32 32 23 42 48 39 42 45 42 35 42 45 48 39 42 39 35 42 39 39 45 42 35 32 32 32 29 42 29 39 48 48 48 58 55 58
19 19 23 55 42 39 42 42 32 29 45 45 39 39 35 39 32 45 39 42 32 39 39 39 39 32 42 42 32 35 32 32 19 32 29 23 23 39 35 42 45 48 45
16 19 26 45 42 42 42 42 39 39 35 42 35 32 35 39 32 35 32 32 29 26 35 32 32 26 32 35 29 26 26 35 39 32 29 19 19 39 39 39 52 52 48
16 19 26 45 45 45 52 42 42 45 35 39 32 32 35 26 35 35 32 32 32 32 39 35 32 23 35 32 23 23 19 29 29 23 19 23 19 35 45 45 45 39 45
13 16 13 32 32 42 42 35 39 35 42 32 26 32 23 19 26 32 29 29 29 26 23 26 29 26 32 26 19 16 19 29 19 13 23 19 26 32 39 35 42 35 42
13 16 13 35 29 29 39 35 32 32 32 35 29 23 19 23 19 23 23 19 16 19 23 26 23 29 23 19 13 10 26 26 3 6 13 19 32 32 35 32 39 39 29
10 16 16 19 26 39 39 39 29 23 32 32 29 19 16 16 16 19 16 19 16 19 23 16 16 19 16 16 13 19 29 29 3 6 3 13 32 29 32 29 39 32 29
3 10 13 13 19 26 23 32 39 29 29 32 23 26 23 23 16 19 13 16 13 13 10 16 13 13 10 13 6 13 16 10 0 0 3 6 23 26 23 23 32 32 35
0 3 6 6 10 13 16 23 26 19 29 19 19 29 16 10 6 3 6 13 3 3 6 10 10 10 10 6 10 10 3 0 0 0 0 13 26 19 19 19 23 19 23
3 3 0 6 10 6 10 19 19 10 10 6 3 10 10 3 3 0 0 13 0 0 10 6 10 6 6 0 0 3 0 0 0 0 0 13 19 19 13 16 16 16 16
3 3 3 6 3 6 10 10 13 13 13 3 0 0 6 3 0 3 6 6 0 0 0 3 6 0 3 0 0 0 0 0 0 0 0 13 19 16 19 10 6 6 10
3 6 3 3 3 3 3 10 6 10 13 6 0 0 0 0 0 0 0 3 3 0 0 0 0 0 0 0 0 0 0 0 0 0 0 10 10 16 10 10 3 10 10
3 6 3 3 3 3 3 10 6 6 6 0 0 0 0 0 0 0 0 0 3 3 0 0 0 0 0 0 0 0 0 0 0 0 0 0 13 10 10 13 6 3 3
3 3 3 3 3 3 6 10 6 6 10 0 0 0 0 0 0 0 3 3 3 3 3 3 3 0 3 3 3 0 0 0 0 0 0 0 10 10 6 0 0 3 3
3 3 3 3 3 3 3 3 6 13 10 3 0 0 0 0 0 3 3 3 3 3 3 3 3 3 3 3 3 0 0 0 0 0 0 0 3 3 10 3 0 3 3
3 3 3 0 0 3 3 10 10 3 3 3 3 0 0 0 3 3 3 3 3 3 3 3 0 3 3 3 3 3 0 0 0 0 0 0 0 3 3 3 0 0 0
3 3 0 0 3 3 3 3 10 6 6 3 3 3 0 0 0 3 3 3 3 3 3 3 0 0 0 0 0 3 3 0 0 0 0 3 0 0 3 3 3 3 3
3 3 3 0 3 3 0 6 10 6 3 3 3 3 0 0 0 3 3 3 3 3 3 0 0 0 0 0 0 0 0 0 0 0 0 0 0 0 0 0 0 0 0
6 6 3 0 0 0 0 3 6 6 3 3 6 3 0 0 0 6 3 3 3 3 0 0 0 0 0 0 0 0 0 0 0 0 0 0 0 0 0 0 0 0 0
6 6 6 3 0 0 3 3 6 6 0 0 0 0 0 0 0 6 3 3 3 3 0 0 0 0 0 0 0 0 0 0 0 0 0 0 0 0 0 0 0 0 0
10 10 10 6 6 6 6 3 3 0 0 3 3 0 0 0 0 6 3 3 3 3 0 0 0 0 0 0 0 0 0 0 0 0 0 0 0 0 0 0 0 0 0
6 10 10 13 10 6 3 6 0 0 3 3 3 0 0 0 0 0 3 3 3 3 0 0 0 0 0 0 0 0 0 0 0 0 0 0 0 0 0 0 0 0 0
6 6 10 13 10 10 10 10 3 3 3 3 3 3 3 3 0 0 3 3 3 3 0 0 0 0 0 0 0 0 0 0 0 0 0 0 0 0 0 0 0 0 0
13 10 10 10 10 10 13 10 10 10 6 0 3 3 3 3 3 3 0 3 3 3 0 0 0 0 0 3 3 0 0 0 0 0 0 0 0 0 0 0 0 0 0

GEFSSE_con_cape1000_264.txt.gz
Probability
6 26 61 68 58 58 61 61 61 61 48 48 45 45 45 52 58 61 61 61 52 58 58 55 52 52 52 48 55 52 48 55 58 61 61 61 61 58 58 65 68 68 68
13 32 68 71 65 55 61 55 52 48 48 42 45 42 45 45 58 65 58 52 48 42 42 48 45 42 48 48 55 55 45 42 45 48 55 52 58 61 55 61 58 52 55
16 35 58 65 61 61 55 55 52 48 45 42 45 39 42 48 52 48 42 45 45 45 42 32 35 35 35 35 32 42 35 35 42 42 29 13 32 55 55 55 61 52 55
13 23 29 58 58 61 52 58 58 48 42 48 48 48 45 45 45 48 42 45 42 42 42 39 32 32 29 29 29 39 42 42 32 32 10 6 19 42 52 42 55 48 58
10 19 48 61 58 58 61 52 55 48 48 48 52 52 48 45 48 52 42 35 35 35 29 32 26 29 29 29 29 32 39 35 32 13 6 6 16 35 39 42 39 39 52
10 19 45 58 55 55 55 52 55 45 45 55 52 45 52 42 42 32 32 29 32 32 23 19 19 19 26 29 29 26 23 26 13 3 6 10 19 32 35 35 39 45 42
10 16 45 61 61 55 48 48 42 42 52 52 35 32 32 32 39 32 26 23 23 16 23 16 19 26 16 19 26 26 16 23 0 0 10 6 23 35 29 32 35 32 35
6 19 35 68 68 58 45 39 35 39 45 35 35 35 26 23 19 23 23 19 19 19 19 23 23 29 19 26 26 29 23 19 3 0 6 13 29 35 35 35 29 42 39
10 10 16 23 42 58 58 39 32 32 42 42 45 32 29 29 16 13 10 10 13 13 16 26 19 23 26 19 16 19 16 13 0 0 3 13 26 35 32 32 32 32 29
10 10 10 13 10 16 23 45 42 32 35 35 39 32 23 23 19 10 10 13 13 16 13 26 26 16 26 19 10 13 13 0 0 0 0 10 23 26 16 19 23 23 19
3 3 3 3 3 6 6 26 32 35 35 23 26 29 23 3 3 6 10 13 6 10 13 16 19 10 6 6 6 6 3 0 0 0 0 13 19 16 10 13 13 16 13
3 3 3 3 3 3 3 6 3 3 6 3 3 3 0 0 0 3 0 13 13 10 13 16 10 6 3 0 0 3 0 0 0 0 0 26 23 16 10 13 10 10 6
3 3 3 3 3 3 0 0 0 0 0 0 0 0 0 0 0 0 0 3 0 0 0 6 3 3 0 0 0 0 0 0 0 0 3 23 19 10 13 6 10 10 10
0 0 3 3 0 0 0 3 0 0 0 0 0 0 0 0 0 0 0 0 0 0 0 0 3 0 0 0 0 0 0 0 0 0 0 23 23 16 6 10 10 6 6
0 0 0 0 0 3 0 0 0 0 0 0 0 0 0 0 0 0 0 0 0 0 0 0 0 0 0 0 0 0 0 0 0 0 0 13 13 10 6 10 3 3 6
0 0 0 0 0 0 0 0 0 0 0 0 0 0 0 0 0 0 0 0 0 0 0 0 0 0 0 0 0 0 0 0 0 0 0 0 3 10 13 10 0 0 3
0 0 0 0 0 0 0 0 3 3 3 0 0 0 0 0 0 0 0 0 0 0 0 0 0 0 0 0 0 0 0 0 0 0 0 0 0 0 6 3 0 0 0
0 0 0 0 0 0 0 0 0 0 0 0 0 0 0 0 0 0 0 0 0 0 0 0 0 0 0 0 0 0 0 0 0 0 0 0 0 0 0 3 0 0 0
0 0 0 0 0 0 0 0 0 0 0 0 0 0 0 0 0 0 0 0 0 0 0 0 0 0 0 0 0 0 0 0 0 0 0 0 0 0 0 0 0 0 0
0 0 0 0 0 0 0 0 0 0 0 0 0 0 0 0 0 0 0 0 0 0 0 0 0 0 0 0 0 0 0 0 0 0 0 0 0 0 0 0 0 0 0
0 0 0 0 0 0 0 0 0 0 0 0 0 0 0 0 0 0 0 0 0 0 0 0 0 0 0 0 0 0 0 0 0 0 0 0 0 0 0 0 0 0 0
0 0 0 0 0 0 0 0 0 0 0 0 0 0 0 0 0 0 0 0 0 0 0 0 0 0 0 0 0 0 0 0 0 0 0 0 0 0 0 0 0 0 0
0 0 0 0 0 0 0 0 0 0 0 0 0 0 0 0 0 0 0 0 0 0 0 0 0 0 0 0 0 0 0 0 0 0 0 0 0 0 0 0 0 0 0
0 0 0 0 0 0 0 0 0 0 0 0 0 0 0 0 0 0 0 0 0 0 0 0 0 0 0 0 0 0 0 0 0 0 0 0 0 0 0 0 0 0 0
0 0 0 0 0 0 0 0 0 3 0 0 0 0 0 0 0 0 0 0 0 0 0 0 0 0 0 0 0 0 0 0 0 0 0 0 0 0 0 0 0 0 0
3 3 3 3 3 3 3 3 0 0 0 0 0 0 0 0 0 0 0 0 0 0 0 0 0 0 0 0 0 0 0 0 0 0 0 0 0 0 0 0 0 0 0

GEFSSE_con_cape1000_270.txt.gz
Probability
0 6 52 48 55 48 55 55 42 32 35 42 45 42 45 48 45 55 55 52 45 45 48 52 48 52 42 42 48 58 65 58 58 45 48 52 58 61 61 65 71 71 77
0 10 55 55 58 52 48 48 39 42 35 35 35 42 42 45 55 58 58 48 48 42 48 39 42 45 39 42 48 55 48 45 45 32 29 35 48 55 58 65 52 48 58
13 23 39 48 58 52 48 52 52 45 39 39 39 48 42 42 32 35 58 45 39 39 32 35 32 29 39 42 45 48 52 35 35 29 23 6 29 45 48 55 55 45 55
13 19 29 52 48 55 58 48 45 45 42 35 42 45 45 35 39 42 48 39 45 39 35 35 35 29 32 29 29 35 39 32 29 23 13 6 13 35 42 39 48 48 45
13 19 35 58 55 58 39 42 45 45 39 39 42 39 39 32 29 32 26 29 32 32 32 32 35 32 32 32 29 26 29 32 32 13 0 3 10 26 42 42 39 35 48
10 16 45 61 55 48 42 39 42 39 42 35 35 45 45 39 32 23 23 23 29 32 32 29 29 26 29 29 32 23 26 26 6 0 0 3 10 23 29 32 42 39 32
6 19 32 52 45 39 35 32 45 42 42 35 39 35 32 35 29 29 26 23 26 29 32 29 29 35 32 29 29 32 26 26 0 0 0 3 16 32 32 32 35 39 29
10 16 23 42 52 35 32 29 35 42 26 32 35 29 32 29 26 26 26 19 26 29 35 32 26 26 19 23 26 26 26 16 3 3 3 6 26 35 29 32 35 32 26
10 10 13 26 26 29 39 32 42 32 32 35 39 42 23 23 16 13 16 19 16 19 19 16 23 26 23 23 26 23 23 6 0 3 10 10 23 32 19 16 23 26 19
10 10 10 6 6 10 13 29 39 35 35 39 35 35 23 19 16 13 13 16 19 16 16 16 26 26 23 16 19 16 10 3 0 0 0 13 23 19 16 16 13 19 16
6 6 6 6 6 6 6 16 16 19 19 23 16 26 6 3 3 6 10 23 23 23 23 23 16 13 10 10 13 13 3 0 0 0 3 13 16 19 16 13 10 13 16
0 6 6 6 6 6 6 0 0 0 0 0 0 0 0 0 0 3 6 10 10 6 10 6 13 6 3 0 3 0 0 0 0 0 3 16 19 13 10 16 10 3 6
0 3 3 3 3 3 3 0 0 0 0 0 0 0 0 0 0 0 0 0 0 0 0 0 3 0 0 0 0 0 0 0 0 0 0 19 16 16 10 6 6 6 3
0 0 0 0 0 0 0 0 0 0 0 0 0 0 0 0 0 0 0 0 0 0 0 0 0 0 0 0 0 0 0 0 0 0 0 6 13 13 16 6 6 6 6
0 0 0 0 0 0 0 0 0 0 0 0 0 0 0 0 0 0 0 0 0 0 0 0 0 0 0 0 0 0 0 0 0 0 0 6 10 10 10 10 10 6 3
0 0 0 0 0 0 0 0 0 0 0 0 0 0 0 0 0 0 0 0 0 0 0 0 0 0 0 0 0 0 0 0 0 0 0 0 6 6 6 10 6 3 6
0 0 0 0 0 0 0 0 0 0 0 0 0 0 0 0 0 0 0 0 0 0 0 0 0 0 0 0 0 0 0 0 0 0 0 0 0 3 3 3 6 0 3
0 0 0 0 0 0 0 0 0 0 0 0 0 0 0 0 0 0 0 0 0 0 0 0 0 0 0 0 0 0 0 0 0 0 0 0 0 0 0 0 3 3 0
0 0 0 0 0 0 0 0 0 0 0 0 0 0 0 0 0 0 0 0 0 0 0 0 0 0 0 0 0 0 0 0 0 0 0 0 0 0 0 0 0 3 3
0 0 0 0 0 0 0 0 0 0 0 0 0 0 0 0 0 0 0 0 0 0 0 0 0 0 0 0 0 0 0 0 0 0 0 0 0 0 0 0 0 0 0
3 3 0 0 0 0 0 0 0 0 0 0 0 0 0 0 0 0 0 0 0 0 0 0 0 0 0 0 0 0 0 0 0 0 0 0 0 0 0 0 0 0 0
3 0 0 0 0 0 0 0 0 0 0 0 0 0 0 0 0 0 0 0 0 0 0 0 0 0 0 0 0 0 0 0 0 0 0 0 0 0 0 0 0 0 0
3 0 0 0 0 0 0 0 0 0 0 0 0 0 0 0 0 0 0 0 0 0 0 0 0 0 0 0 0 0 0 0 0 0 0 0 0 0 0 0 0 0 0
0 0 0 0 0 0 0 0 0 0 0 0 0 0 0 0 0 0 0 0 0 0 0 0 0 0 0 0 0 0 0 0 0 0 0 0 0 0 0 0 0 0 0
0 0 0 0 0 0 0 0 0 0 0 0 0 0 0 0 0 0 0 0 0 0 0 0 0 0 0 0 0 0 0 0 0 0 0 0 0 0 0 0 0 0 0
0 0 0 0 0 0 0 0 0 0 0 0 0 0 0 0 0 0 0 0 0 0 0 0 0 0 0 0 0 0 0 0 0 0 0 0 0 0 0 0 0 0 0

GEFSSE_con_cape1000_276.txt.gz
Probability
6 19 26 35 39 39 48 45 45 45 39 39 48 45 48 52 58 55 52 55 45 48 48 55 58 61 52 52 58 61 55 42 35 35 42 48 52 55 55 42 42 42 65
0 13 35 48 48 42 45 52 45 42 39 32 42 39 48 45 42 48 52 42 45 48 45 45 42 42 42 48 48 48 39 29 29 26 32 35 42 48 55 48 48 58 52
0 10 23 45 48 42 45 35 39 39 39 35 35 35 39 32 42 48 42 45 35 32 35 35 32 32 42 39 39 39 32 19 16 13 16 29 32 39 39 48 42 39 32
0 10 16 42 45 35 32 35 35 45 42 35 42 29 26 35 29 32 35 35 35 29 32 32 32 32 35 32 35 26 29 23 13 13 19 19 23 26 29 32 39 39 39
6 6 26 52 42 42 35 39 35 42 39 42 35 29 29 35 39 35 32 29 29 29 26 26 29 32 32 29 26 23 16 16 19 19 13 26 45 29 32 32 35 35 42
10 16 39 52 45 39 35 29 29 29 29 35 35 35 29 32 29 35 29 29 26 23 26 29 32 35 32 26 23 19 16 16 16 19 26 26 29 42 39 39 32 35 42
13 16 29 45 45 42 32 26 23 32 29 26 32 35 32 35 32 29 26 26 23 19 26 26 32 35 32 29 26 19 19 19 13 23 26 23 29 29 32 39 35 39 32
10 6 19 42 42 39 39 35 29 26 29 29 35 35 29 26 32 23 23 32 26 23 23 26 23 23 23 26 23 23 26 16 10 10 16 26 32 29 29 29 29 29 35
3 10 13 19 23 29 42 29 23 19 35 39 39 32 29 26 23 19 19 26 26 23 23 23 19 16 16 13 13 19 10 13 6 10 6 23 23 16 19 19 29 19 23
3 6 10 13 16 19 26 32 26 23 32 35 35 35 23 13 19 16 10 13 23 23 19 16 23 19 16 10 13 13 6 3 10 13 10 13 16 19 19 23 16 19 3
10 16 10 13 6 13 19 10 26 19 23 26 26 13 6 10 6 10 6 16 10 13 13 10 13 13 6 6 6 10 10 3 6 16 10 13 16 16 16 10 10 13 6
10 13 16 6 10 3 3 16 19 13 10 10 13 6 3 3 3 3 3 10 10 6 6 10 13 6 0 0 3 3 3 3 3 10 13 13 13 16 13 3 3 10 6
3 13 10 13 13 13 13 13 16 23 23 6 3 3 6 6 3 3 10 13 13 6 10 0 0 0 0 0 0 3 0 0 3 6 6 6 10 13 6 6 6 6 3
10 13 13 13 10 16 10 6 10 16 16 3 3 6 10 13 10 10 10 3 6 10 10 6 6 0 0 0 0 0 0 0 3 6 10 6 6 10 6 6 6 6 3
6 10 10 10 10 13 16 23 3 6 6 10 23 13 3 6 6 3 3 3 3 0 3 3 0 0 3 3 0 0 0 0 0 0 6 3 6 10 3 3 6 6 3
3 6 13 13 13 10 10 26 19 16 19 10 16 6 0 3 3 3 0 0 0 0 3 0 3 0 0 0 3 0 0 0 0 3 6 6 6 6 3 6 6 3 3
3 6 13 13 10 10 3 6 10 16 16 13 10 3 3 6 3 3 0 0 0 0 0 0 0 0 0 0 3 0 6 3 0 0 0 3 3 3 3 0 3 3 0
10 13 13 10 10 10 6 13 13 13 13 13 13 13 0 0 3 6 3 3 0 0 0 0 0 0 0 0 0 3 3 10 0 0 0 0 0 0 0 3 0 0 0
6 10 13 13 10 10 10 10 6 6 6 6 13 10 10 6 3 6 6 3 3 3 0 0 0 0 6 6 3 3 10 10 3 0 0 0 0 0 0 0 0 0 0
10 6 10 10 10 10 10 10 6 6 6 10 10 10 6 10 6 10 10 10 6 10 3 0 0 0 3 3 0 0 3 3 3 0 0 0 0 0 0 0 0 0 0
10 10 6 10 10 10 16 13 10 10 10 6 6 3 6 6 6 10 13 10 10 13 10 3 3 0 0 0 3 3 3 3 0 0 0 0 0 0 0 0 0 0 0
10 10 10 10 10 10 13 10 10 13 6 6 3 6 3 3 3 3 3 3 6 19 13 3 3 6 6 0 6 3 0 0 0 0 0 0 0 0 0 0 0 0 0
10 10 10 13 10 10 16 6 3 6 3 3 3 3 0 0 3 3 3 3 0 0 6 10 10 16 13 6 3 10 6 3 0 3 0 0 0 0 0 0 0 0 0
10 3 6 6 6 3 10 6 3 6 6 0 0 0 0 0 0 3 3 0 0 0 0 3 3 6 6 10 3 6 6 3 6 3 0 0 0 0 0 0 0 0 0
6 3 3 6 6 3 3 3 13 0 3 0 0 0 0 0 0 3 3 6 3 6 0 0 0 6 6 10 10 3 6 6 3 3 0 0 0 0 0 0 0 0 0
6 3 6 10 13 6 13 3 3 3 0 0 0 0 0 0 0 0 3 3 3 6 3 6 3 3 6 3 3 10 3 3 3 3 0 0 0 0 0 0 0 0 0

GEFSSE_con_cape1000_282.txt.gz
Probability
29 29 58 52 55 48 52 48 48 39 32 39 52 48 55 55 52 52 45 42 45 48 48 48 52 52 52 55 45 42 26 32 32 42 42 42 45 58 48 45 55 52 48
26 23 55 61 52 48 48 42 45 42 39 45 48 45 48 48 48 52 52 48 45 45 45 42 52 48 39 39 39 35 23 26 26 29 39 45 45 55 48 58 61 45 45
26 32 42 58 48 45 48 48 42 42 42 32 35 42 32 35 35 42 42 39 32 35 39 39 35 39 39 35 29 13 13 23 16 29 35 26 42 45 39 45 52 39 32
13 32 39 42 42 39 39 39 39 39 39 35 29 35 32 32 32 32 32 32 32 32 39 35 42 35 35 32 23 16 13 19 23 26 16 23 23 39 45 48 42 39 35
23 32 35 52 45 35 39 39 29 35 39 29 29 39 32 29 32 26 23 23 32 32 35 35 35 35 32 26 23 16 19 23 29 19 16 6 10 39 32 42 39 32 26
23 35 35 48 42 39 35 39 42 45 48 32 35 39 32 32 35 26 29 26 29 29 29 32 35 32 32 29 23 16 19 26 29 16 13 13 13 32 32 45 42 35 42
26 35 32 45 45 39 42 39 42 35 35 35 32 39 39 35 26 26 26 26 29 29 29 29 29 29 29 26 26 29 29 23 16 16 16 16 16 32 32 35 42 45 35
16 23 29 48 45 39 39 39 39 32 26 26 39 39 35 29 26 23 26 26 23 26 23 16 19 19 16 23 26 23 23 16 13 13 16 10 35 29 26 29 39 45 26
13 26 23 23 32 48 45 42 39 35 29 26 26 29 29 32 26 26 23 19 19 19 16 13 10 13 10 10 16 13 19 23 6 10 6 3 23 16 16 19 23 19 19
6 16 23 23 23 23 29 48 42 29 29 32 35 32 32 39 29 29 26 16 10 13 16 13 10 16 16 16 13 19 26 6 0 3 6 13 13 13 13 6 6 6 10
6 13 13 19 26 26 16 23 42 42 39 32 32 42 45 13 10 10 10 16 13 10 10 16 19 13 19 23 23 26 10 0 3 3 6 16 16 13 13 6 3 6 6
10 13 3 13 13 19 16 16 26 19 16 10 6 13 13 10 6 3 13 26 23 13 10 16 23 26 13 3 10 10 3 0 3 6 3 26 16 19 13 10 13 6 6
6 6 10 10 10 13 16 16 16 23 23 13 10 13 13 13 10 10 10 10 10 13 6 13 13 3 0 0 0 0 0 0 0 0 0 16 19 10 10 6 3 6 10
3 10 10 10 10 6 13 16 19 19 16 13 6 6 6 10 10 13 10 13 13 10 0 3 3 0 0 0 0 0 0 0 0 3 3 16 16 13 10 16 10 6 10
3 6 6 6 6 6 13 13 6 13 10 13 16 3 6 10 10 6 6 6 6 6 3 3 3 0 0 0 0 0 0 0 0 0 0 13 13 16 10 13 6 10 13
0 3 3 3 0 0 6 10 13 10 6 10 6 0 3 3 6 10 3 3 0 0 0 0 0 3 3 0 0 0 3 0 0 3 0 6 13 13 10 13 6 10 6
3 3 3 3 3 3 0 6 6 10 3 3 3 0 0 3 3 3 3 0 0 0 0 0 0 0 3 3 6 6 0 3 0 3 0 3 0 6 6 6 6 6 6
3 6 3 6 3 3 6 3 3 6 6 6 10 3 0 0 0 3 3 0 0 0 3 0 0 3 3 3 3 3 10 6 3 0 0 0 0 0 3 10 10 3 3
3 6 3 6 3 3 10 6 10 6 6 6 10 6 3 3 3 3 6 0 3 0 3 0 0 0 0 0 0 3 3 3 0 0 0 0 0 0 0 3 3 3 3
3 3 6 10 6 0 6 10 10 6 10 6 3 3 3 3 3 3 6 3 0 3 0 0 0 0 0 0 0 0 6 6 3 0 0 0 0 0 0 0 0 0 0
6 6 10 10 13 13 13 13 10 10 6 6 3 3 3 3 3 3 3 6 6 0 3 3 0 6 3 0 0 0 0 0 3 0 0 0 0 0 0 0 0 0 0
6 6 10 10 10 13 16 10 10 10 3 3 3 3 0 0 0 0 0 3 0 3 3 6 0 0 0 0 0 0 0 0 0 0 0 0 0 0 0 0 0 0 0
3 6 6 6 6 13 13 3 3 3 3 0 3 3 0 0 0 0 0 0 0 0 3 3 3 0 0 0 0 0 0 0 0 0 0 0 0 0 0 0 0 0 0
6 3 0 10 10 10 10 10 3 3 6 3 3 0 0 0 0 0 0 0 0 0 3 3 3 3 0 0 0 0 0 0 0 0 0 0 0 0 0 0 0 0 0
6 6 6 6 10 6 10 10 6 3 3 0 0 0 0 0 0 0 0 0 0 3 3 3 3 3 0 0 0 0 0 0 0 0 0 0 0 0 0 0 0 0 0
16 13 6 3 6 6 10 10 10 6 3 3 3 3 0 0 0 0 0 0 0 0 3 3 3 6 6 0 0 0 0 0 0 0 0 0 0 0 0 0 0 0 0